Location: Góry Miechowskie
(50.3599°N, 20.1803°E)
Time: 21:27:07
(UTC+00:00)

Transit 2A Rocket - Pass Details

Date: 18 September 2024
Orbit: 582 x 908 km, 66.7° (Epoch: 09 October)

Event Time Altitude Azimuth Distance (km) Brightness Sun altitude
Exits shadow 00:48:16 15° 311° (NW) 2,246 7.4 -30.5°
Maximum altitude 00:50:56 20° 343° (NNW) 1,989 7.4 -30.2°
Drops below altitude 10° 00:55:13 10° 28° (NNE) 2,570 8.6 -29.7°
Sets 00:58:27 0° 46° (NE) 3,475 9.6 -29.4°
